| time (UTC) | temp F | wind direction | speed MPH | gust MPH | rain 1hr in | rain 24hr in | rain mn in | humidity % | barometer mb |
| 20260506090107 | 51 | 23 | 16.0 | 24.0 | 0.00 | 0.01 | 0.00 | 75 | |
| 20260506085608 | 51 | 32 | 17.0 | 26.0 | 0.00 | 0.01 | 0.00 | 76 | |
| 20260506085340 | 51 | 40 | 17.0 | 27.0 | 0.00 | 0.01 | 0.00 | 75 | |
| 20260506084609 | 51 | 26 | 17.0 | 27.0 | 0.00 | 0.01 | 0.00 | 76 | |
| 20260506084102 | 51 | 59 | 17.0 | 29.0 | 0.00 | 0.01 | 0.00 | 77 | |
| 20260506083551 | 51 | 47 | 15.0 | 29.0 | 0.00 | 0.01 | 0.00 | 78 | |
| 20260506083053 | 51 | 0 | 14.0 | 26.0 | 0.00 | 0.01 | 0.00 | 78 | |
| 20260506082552 | 51 | 49 | 14.0 | 26.0 | 0.00 | 0.01 | 0.00 | 79 | |
| 20260506082051 | 51 | 35 | 14.0 | 24.0 | 0.00 | 0.01 | 0.00 | 79 | |
| 20260506081552 | 51 | 28 | 16.0 | 34.0 | 0.00 | 0.01 | 0.00 | 81 | |
| 20260506081053 | 51 | 28 | 17.0 | 34.0 | 0.00 | 0.01 | 0.00 | 79 | |
| 20260506080552 | 51 | 44 | 16.0 | 28.0 | 0.00 | 0.01 | 0.00 | 80 | |
| 20260506073513 | 50 | 42 | 13.0 | 24.0 | 0.00 | 0.01 | 0.00 | 85 | |
| 20260506073013 | 50 | 30 | 14.0 | 24.0 | 0.00 | 0.01 | 0.00 | 85 | |
| 20260506072513 | 50 | 13 | 16.0 | 27.0 | 0.00 | 0.01 | 0.00 | 84 | |
| 20260506072015 | 50 | 11 | 16.0 | 27.0 | 0.00 | 0.01 | 0.00 | 84 | |
| 20260506071514 | 50 | 15 | 16.0 | 29.0 | 0.00 | 0.01 | 0.00 | 84 | |
| 20260506071014 | 50 | 21 | 14.0 | 29.0 | 0.00 | 0.01 | 0.00 | 84 | |
| 20260506070513 | 50 | 29 | 15.0 | 25.0 | 0.00 | 0.01 | 0.00 | 84 | |
| 20260506062417 | 50 | 23 | 13.0 | 20.0 | 0.00 | 0.01 | 0.00 | 84 | |
| 20260506061917 | 50 | 19 | 13.0 | 20.0 | 0.00 | 0.01 | 0.00 | 84 | |
| 20260506061419 | 50 | 38 | 12.0 | 20.0 | 0.00 | 0.01 | 0.00 | 84 | |
| 20260506060917 | 50 | 5 | 11.0 | 20.0 | 0.00 | 0.01 | 0.00 | 84 | |
| 20260506060417 | 50 | 26 | 12.0 | 19.0 | 0.00 | 0.01 | 0.00 | 84 | |
| 20260506050902 | 49 | 37 | 9.0 | 15.0 | 0.00 | 0.01 | 0.00 | 86 | |
| 20260506050353 | 49 | 50 | 9.0 | 17.0 | 0.00 | 0.01 | 0.00 | 86 | |
| 20260506044833 | 49 | 32 | 10.0 | 18.0 | 0.00 | 0.01 | 0.00 | 86 | |
| 20260506044327 | 49 | 22 | 11.0 | 18.0 | 0.00 | 0.01 | 0.00 | 86 | |
| 20260506044320 | 49 | 24 | 12.0 | 19.0 | 0.00 | 0.01 | 0.00 | 86 | |
| 20260506043314 | 49 | 34 | 12.0 | 19.0 | 0.00 | 0.01 | 0.00 | 87 | |
| 20260506042803 | 49 | 17 | 13.0 | 20.0 | 0.00 | 0.01 | 0.00 | 87 | |
| 20260506042532 | 49 | 26 | 13.0 | 20.0 | 0.00 | 0.01 | 0.00 | 88 | |
| 20260506041800 | 50 | 22 | 13.0 | 18.0 | 0.00 | 0.01 | 0.00 | 88 | |
| 20260506041307 | 49 | 15 | 14.0 | 23.0 | 0.00 | 0.01 | 0.00 | 88 | |
| 20260506041302 | 49 | 22 | 14.0 | 18.0 | 0.00 | 0.01 | 0.00 | 88 | |
| 20260506040530 | 49 | 22 | 14.0 | 23.0 | 0.00 | 0.01 | 0.00 | 89 | |
| 20260506035802 | 49 | 18 | 13.0 | 19.0 | 0.00 | 0.01 | 0.00 | 89 | |
| 20260506035306 | 49 | 23 | 13.0 | 21.0 | 0.00 | 0.01 | 0.00 | 90 | |
| 20260506035300 | 49 | 20 | 12.0 | 19.0 | 0.00 | 0.01 | 0.00 | 90 | |
| 20260506034300 | 49 | 24 | 14.0 | 21.0 | 0.00 | 0.01 | 0.00 | 90 | |
| 20260506033805 | 49 | 9 | 14.0 | 20.0 | 0.00 | 0.01 | 0.00 | 90 | |
| 20260506033801 | 49 | 17 | 14.0 | 20.0 | 0.00 | 0.01 | 0.00 | 90 | |
| 20260506032803 | 49 | 9 | 15.0 | 20.0 | 0.00 | 0.01 | 0.00 | 90 | |
| 20260506032305 | 50 | 31 | 16.0 | 24.0 | 0.00 | 0.01 | 0.00 | 90 | |
| 20260506031803 | 50 | 17 | 17.0 | 24.0 | 0.00 | 0.01 | 0.00 | 91 | |
| 20260506031301 | 50 | 10 | 16.0 | 23.0 | 0.00 | 0.01 | 0.00 | 91 | |
| 20260506030748 | 50 | 351 | 15.0 | 23.0 | 0.00 | 0.01 | 0.00 | 91 | |
| 20260506030244 | 49 | 21 | 15.0 | 22.0 | 0.00 | 0.01 | 0.00 | 91 | |
| 20260506025735 | 50 | 0 | 15.0 | 21.0 | 0.00 | 0.01 | 0.00 | 91 | |
| 20260506025230 | 49 | 355 | 14.0 | 21.0 | 0.00 | 0.01 | 0.00 | 91 | |
| 20260506024723 | 49 | 13 | 13.0 | 18.0 | 0.00 | 0.01 | 0.00 | 91 | |
| 20260506024719 | 49 | 14 | 14.0 | 21.0 | 0.00 | 0.01 | 0.00 | 91 | |
| 20260506023711 | 49 | 9 | 12.0 | 18.0 | 0.00 | 0.01 | 0.00 | 91 | |
| 20260506023204 | 49 | 24 | 13.0 | 22.0 | 0.00 | 0.01 | 0.00 | 91 | |
| 20260506022657 | 49 | 10 | 12.0 | 22.0 | 0.00 | 0.01 | 0.00 | 91 | |
| 20260506022152 | 49 | 17 | 14.0 | 18.0 | 0.00 | 0.01 | 0.00 | 91 | |
| 20260506022148 | 49 | 19 | 12.0 | 17.0 | 0.00 | 0.01 | 0.00 | 91 | |
| 20260506021141 | 49 | 18 | 13.0 | 18.0 | 0.00 | 0.01 | 0.00 | 91 | |
| 20260506020634 | 49 | 24 | 12.0 | 18.0 | 0.00 | 0.01 | 0.00 | 91 | |
| 20260506020357 | 49 | 9 | 12.0 | 16.0 | 0.00 | 0.01 | 0.00 | 90 | |
| 20260506015622 | 49 | 17 | 12.0 | 18.0 | 0.00 | 0.01 | 0.00 | 90 | |
| 20260506015114 | 49 | 26 | 12.0 | 18.0 | 0.00 | 0.01 | 0.00 | 90 | |
| 20260506014609 | 49 | 17 | 10.0 | 16.0 | 0.00 | 0.01 | 0.00 | 90 | |
| 20260506014059 | 49 | 23 | 10.0 | 15.0 | 0.00 | 0.01 | 0.00 | 90 | |
| 20260506013556 | 49 | 15 | 10.0 | 16.0 | 0.00 | 0.01 | 0.00 | 90 | |
| 20260506013049 | 49 | 18 | 11.0 | 16.0 | 0.00 | 0.01 | 0.00 | 89 | |
| 20260506012544 | 49 | 22 | 12.0 | 16.0 | 0.00 | 0.01 | 0.00 | 90 | |
| 20260506012309 | 49 | 21 | 11.0 | 16.0 | 0.00 | 0.01 | 0.00 | 89 | |
| 20260506011527 | 49 | 27 | 11.0 | 16.0 | 0.00 | 0.01 | 0.00 | 89 | |
| 20260506011025 | 49 | 21 | 11.0 | 16.0 | 0.00 | 0.01 | 0.00 | 89 | |
| 20260506010517 | 49 | 24 | 11.0 | 16.0 | 0.00 | 0.01 | 0.00 | 89 | |
| 20260506010014 | 49 | 22 | 11.0 | 16.0 | 0.00 | 0.01 | 0.00 | 89 | |
| 20260506005508 | 49 | 31 | 11.0 | 18.0 | 0.00 | 0.01 | 0.00 | 89 | |
| 20260506005002 | 49 | 24 | 11.0 | 18.0 | 0.00 | 0.01 | 0.00 | 89 | |
| 20260506004455 | 49 | 19 | 11.0 | 18.0 | 0.00 | 0.01 | 0.00 | 89 | |
| 20260506004450 | 49 | 22 | 11.0 | 17.0 | 0.00 | 0.01 | 0.00 | 89 | |
| 20260506003444 | 49 | 18 | 11.0 | 17.0 | 0.00 | 0.01 | 0.00 | 89 | |
| 20260506003210 | 49 | 18 | 10.0 | 17.0 | 0.00 | 0.01 | 0.00 | 89 | |
| 20260506002433 | 49 | 18 | 10.0 | 17.0 | 0.00 | 0.01 | 0.00 | 88 | |
| 20260506001927 | 49 | 17 | 11.0 | 17.0 | 0.00 | 0.01 | 0.00 | 88 | |
| 20260506001419 | 49 | 5 | 11.0 | 17.0 | 0.00 | 0.01 | 0.00 | 88 | |
| 20260506000915 | 49 | 26 | 11.0 | 17.0 | 0.00 | 0.01 | 0.00 | 88 | |
| 20260506000405 | 49 | 13 | 11.0 | 17.0 | 0.00 | 0.01 | 0.00 | 88 | |
| 20260505235902 | 49 | 26 | 12.0 | 17.0 | 0.00 | 0.01 | 0.00 | 88 | |
| 20260505235355 | 49 | 20 | 13.0 | 17.0 | 0.00 | 0.01 | 0.00 | 88 | |
| 20260505235122 | 49 | 19 | 14.0 | 19.0 | 0.00 | 0.01 | 0.00 | 88 | |
| 20260505234345 | 49 | 17 | 13.0 | 19.0 | 0.00 | 0.01 | 0.00 | 88 | |
| 20260505233834 | 49 | 17 | 11.0 | 19.0 | 0.00 | 0.01 | 0.00 | 88 | |
| 20260505233608 | 49 | 18 | 11.0 | 20.0 | 0.00 | 0.01 | 0.00 | 88 | |
| 20260505232827 | 49 | 9 | 12.0 | 20.0 | 0.00 | 0.01 | 0.00 | 87 | |
| 20260505232320 | 49 | 14 | 13.0 | 21.0 | 0.00 | 0.01 | 0.00 | 87 | |
| 20260505231814 | 49 | 15 | 13.0 | 21.0 | 0.00 | 0.01 | 0.00 | 87 | |
| 20260505231304 | 49 | 5 | 13.0 | 18.0 | 0.00 | 0.01 | 0.00 | 87 | |
| 20260505230802 | 49 | 17 | 13.0 | 20.0 | 0.00 | 0.01 | 0.00 | 87 | |
| 20260505230258 | 49 | 38 | 14.0 | 24.0 | 0.00 | 0.01 | 0.00 | 87 | |
| 20260505225750 | 49 | 22 | 15.0 | 24.0 | 0.00 | 0.01 | 0.00 | 87 | |
| 20260505225245 | 49 | 13 | 15.0 | 25.0 | 0.00 | 0.01 | 0.00 | 87 | |
| 20260505224738 | 49 | 17 | 16.0 | 25.0 | 0.00 | 0.01 | 0.00 | 87 | |
| 20260505224233 | 49 | 12 | 15.0 | 25.0 | 0.00 | 0.01 | 0.00 | 87 | |
| 20260505223725 | 49 | 20 | 15.0 | 22.0 | 0.00 | 0.01 | 0.00 | 87 | |
| 20260505223721 | 49 | 20 | 14.0 | 22.0 | 0.00 | 0.01 | 0.00 | 87 | |
| 20260505222947 | 49 | 15 | 15.0 | 24.0 | 0.00 | 0.01 | 0.00 | 87 | |
| 20260505222210 | 49 | 20 | 15.0 | 24.0 | 0.00 | 0.01 | 0.00 | 87 | |
| 20260505221702 | 49 | 13 | 14.0 | 24.0 | 0.00 | 0.01 | 0.00 | 88 | |
| 20260505221154 | 49 | 15 | 14.0 | 23.0 | 0.00 | 0.01 | 0.00 | 88 | |
| 20260505220650 | 49 | 25 | 16.0 | 23.0 | 0.00 | 0.01 | 0.00 | 88 | |
| 20260505220144 | 49 | 28 | 16.0 | 24.0 | 0.00 | 0.01 | 0.00 | 88 | |
| 20260505215640 | 49 | 15 | 15.0 | 24.0 | 0.00 | 0.01 | 0.01 | 88 | |
| 20260505215134 | 49 | 28 | 14.0 | 24.0 | 0.00 | 0.01 | 0.01 | 88 | |
| 20260505214625 | 49 | 22 | 14.0 | 20.0 | 0.00 | 0.01 | 0.01 | 88 | |
| 20260505214118 | 49 | 26 | 14.0 | 20.0 | 0.00 | 0.01 | 0.01 | 88 | |
| 20260505213612 | 49 | 20 | 14.0 | 21.0 | 0.00 | 0.01 | 0.01 | 88 | |
| 20260505213335 | 49 | 9 | 16.0 | 23.0 | 0.00 | 0.01 | 0.01 | 88 | |
| 20260505212602 | 50 | 5 | 16.0 | 23.0 | 0.00 | 0.01 | 0.01 | 88 | |
| 20260505212322 | 50 | 5 | 17.0 | 24.0 | 0.00 | 0.01 | 0.01 | 88 | |
| 20260505211548 | 49 | 28 | 16.0 | 24.0 | 0.00 | 0.01 | 0.01 | 88 | |
| 20260505211042 | 50 | 19 | 16.0 | 21.0 | 0.00 | 0.01 | 0.01 | 88 | |
| 20260505210529 | 50 | 23 | 17.0 | 25.0 | 0.00 | 0.01 | 0.01 | 87 | |
| 20260505210029 | 50 | 27 | 18.0 | 25.0 | 0.00 | 0.01 | 0.01 | 87 | |
| 20260505205524 | 50 | 9 | 17.0 | 25.0 | 0.00 | 0.01 | 0.01 | 87 | |
| 20260505205017 | 50 | 17 | 17.0 | 26.0 | 0.00 | 0.01 | 0.01 | 87 | |
| 20260505204508 | 50 | 9 | 17.0 | 26.0 | 0.00 | 0.01 | 0.01 | 87 | |
| 20260505204002 | 50 | 31 | 16.0 | 22.0 | 0.00 | 0.01 | 0.01 | 87 | |
| 20260505203728 | 50 | 355 | 17.0 | 24.0 | 0.00 | 0.01 | 0.01 | 87 | |
| 20260505202950 | 50 | 5 | 16.0 | 26.0 | 0.00 | 0.01 | 0.01 | 87 | |
| 20260505202439 | 50 | 33 | 16.0 | 26.0 | 0.00 | 0.01 | 0.01 | 87 | |
| 20260505201938 | 50 | 5 | 18.0 | 28.0 | 0.00 | 0.01 | 0.01 | 87 | |
| 20260505201435 | 50 | 13 | 18.0 | 28.0 | 0.00 | 0.01 | 0.01 | 87 | |
| 20260505200926 | 50 | 11 | 17.0 | 27.0 | 0.00 | 0.01 | 0.01 | 87 | |
| 20260505200651 | 50 | 28 | 16.0 | 27.0 | 0.00 | 0.01 | 0.01 | 87 | |
| 20260505195916 | 50 | 13 | 16.0 | 28.0 | 0.00 | 0.01 | 0.01 | 87 | |
| 20260505195639 | 50 | 20 | 15.0 | 28.0 | 0.00 | 0.01 | 0.01 | 87 | |
| 20260505194902 | 50 | 27 | 14.0 | 23.0 | 0.00 | 0.01 | 0.01 | 88 | |
| 20260505194356 | 50 | 19 | 15.0 | 23.0 | 0.00 | 0.01 | 0.01 | 87 | |
| 20260505193850 | 50 | 28 | 16.0 | 22.0 | 0.00 | 0.01 | 0.01 | 87 | |
| 20260505193344 | 50 | 24 | 17.0 | 26.0 | 0.00 | 0.01 | 0.01 | 87 | |
| 20260505192839 | 50 | 15 | 19.0 | 26.0 | 0.00 | 0.01 | 0.01 | 87 | |
| 20260505192328 | 50 | 347 | 20.0 | 28.0 | 0.00 | 0.01 | 0.01 | 87 | |
| 20260505191826 | 50 | 5 | 20.0 | 28.0 | 0.00 | 0.01 | 0.01 | 87 | |
| 20260505191322 | 50 | 30 | 19.0 | 28.0 | 0.00 | 0.01 | 0.01 | 87 | |
| 20260505190809 | 51 | 13 | 18.0 | 26.0 | 0.00 | 0.01 | 0.01 | 87 | |
| 20260505190304 | 51 | 19 | 18.0 | 30.0 | 0.00 | 0.01 | 0.01 | 88 | |
| 20260505185758 | 51 | 19 | 19.0 | 30.0 | 0.00 | 0.01 | 0.01 | 87 | |
| 20260505185252 | 51 | 20 | 18.0 | 28.0 | 0.00 | 0.01 | 0.01 | 88 | |
| 20260505184752 | 51 | 12 | 19.0 | 28.0 | 0.00 | 0.01 | 0.01 | 88 | |
| 20260505184525 | 51 | 19 | 19.0 | 25.0 | 0.00 | 0.01 | 0.01 | 88 | |
| 20260505183754 | 51 | 11 | 17.0 | 25.0 | 0.00 | 0.01 | 0.01 | 88 | |
| 20260505183523 | 51 | 5 | 17.0 | 23.0 | 0.00 | 0.01 | 0.01 | 88 | |
| 20260505182754 | 51 | 15 | 18.0 | 28.0 | 0.00 | 0.01 | 0.01 | 87 | |
| 20260505182252 | 51 | 0 | 19.0 | 28.0 | 0.00 | 0.01 | 0.01 | 87 | |
| 20260505181750 | 51 | 22 | 17.0 | 28.0 | 0.00 | 0.01 | 0.01 | 87 | |
| 20260505181251 | 52 | 355 | 16.0 | 28.0 | 0.00 | 0.01 | 0.01 | 87 | |
| 20260505180750 | 52 | 355 | 15.0 | 26.0 | 0.00 | 0.01 | 0.01 | 87 | |
| 20260505180253 | 52 | 355 | 17.0 | 27.0 | 0.00 | 0.01 | 0.01 | 87 | |
| 20260505175753 | 52 | 13 | 17.0 | 27.0 | 0.00 | 0.01 | 0.01 | 86 | |
| 20260505175250 | 52 | 0 | 16.0 | 25.0 | 0.00 | 0.01 | 0.01 | 86 | |
| 20260505174750 | 52 | 10 | 19.0 | 30.0 | 0.00 | 0.01 | 0.01 | 86 | |
| 20260505174249 | 52 | 355 | 20.0 | 30.0 | 0.00 | 0.01 | 0.01 | 86 | |
| 20260505173747 | 52 | 24 | 20.0 | 30.0 | 0.00 | 0.01 | 0.01 | 86 | |
| 20260505173517 | 53 | 5 | 21.0 | 30.0 | 0.00 | 0.01 | 0.01 | 85 | |
| 20260505172746 | 53 | 28 | 22.0 | 30.0 | 0.00 | 0.01 | 0.01 | 85 | |
| 20260505172248 | 53 | 5 | 19.0 | 30.0 | 0.00 | 0.01 | 0.01 | 85 | |
| 20260505171746 | 53 | 5 | 16.0 | 24.0 | 0.00 | 0.01 | 0.01 | 85 | |
| 20260505171246 | 53 | 19 | 18.0 | 29.0 | 0.00 | 0.01 | 0.01 | 84 | |
| 20260505170747 | 53 | 355 | 21.0 | 31.0 | 0.00 | 0.01 | 0.01 | 83 | |
| 20260505170246 | 53 | 14 | 19.0 | 31.0 | 0.00 | 0.01 | 0.01 | 82 | |
| 20260505165746 | 53 | 12 | 18.0 | 28.0 | 0.00 | 0.01 | 0.01 | 82 | |
| 20260505165247 | 53 | 35 | 17.0 | 28.0 | 0.00 | 0.01 | 0.01 | 82 | |
| 20260505164748 | 53 | 17 | 16.0 | 27.0 | 0.00 | 0.01 | 0.01 | 82 | |
| 20260505164246 | 53 | 22 | 16.0 | 24.0 | 0.00 | 0.01 | 0.01 | 82 | |
| 20260505163747 | 53 | 16 | 17.0 | 24.0 | 0.00 | 0.01 | 0.01 | 82 | |
| 20260505163247 | 53 | 35 | 19.0 | 26.0 | 0.00 | 0.01 | 0.01 | 82 | |
| 20260505162748 | 53 | 5 | 21.0 | 29.0 | 0.00 | 0.01 | 0.01 | 82 | |
| 20260505162246 | 53 | 19 | 21.0 | 32.0 | 0.00 | 0.01 | 0.01 | 82 | |
| 20260505161744 | 53 | 10 | 20.0 | 32.0 | 0.00 | 0.01 | 0.01 | 83 | |
| 20260505161236 | 53 | 13 | 20.0 | 30.0 | 0.00 | 0.01 | 0.01 | 82 | |
| 20260505161001 | 53 | 20 | 20.0 | 30.0 | 0.00 | 0.01 | 0.01 | 82 | |
| 20260505160222 | 54 | 0 | 20.0 | 28.0 | 0.00 | 0.01 | 0.01 | 83 | |
| 20260505152633 | 54 | 13 | 19.0 | 27.0 | 0.00 | 0.01 | 0.01 | 85 | |
| 20260505152359 | 54 | 9 | 17.0 | 27.0 | 0.00 | 0.01 | 0.01 | 84 | |
| 20260505151632 | 54 | 15 | 16.0 | 25.0 | 0.00 | 0.01 | 0.01 | 85 | |
| 20260505151350 | 53 | 28 | 18.0 | 26.0 | 0.00 | 0.01 | 0.01 | 85 | |
| 20260505150616 | 53 | 5 | 17.0 | 26.0 | 0.00 | 0.01 | 0.01 | 85 | |
| 20260505150111 | 53 | 13 | 18.0 | 25.0 | 0.00 | 0.01 | 0.01 | 86 | |
| 20260505140535 | 53 | 9 | 16.0 | 22.0 | 0.00 | 0.01 | 0.01 | 87 | |
| 20260505125024 | 52 | 39 | 10.0 | 18.0 | 0.00 | 0.01 | 0.01 | 88 | |
| 20260505124525 | 52 | 17 | 10.0 | 16.0 | 0.00 | 0.01 | 0.01 | 88 | |
| 20260505124018 | 52 | 29 | 11.0 | 19.0 | 0.00 | 0.01 | 0.01 | 88 | |
| 20260505123516 | 52 | 33 | 12.0 | 20.0 | 0.00 | 0.01 | 0.01 | 88 | |
| 20260505123017 | 52 | 22 | 12.0 | 20.0 | 0.00 | 0.02 | 0.01 | 88 | |
| 20260505122516 | 52 | 9 | 11.0 | 19.0 | 0.00 | 0.02 | 0.01 | 87 | |
| 20260505122015 | 52 | 25 | 12.0 | 22.0 | 0.00 | 0.02 | 0.01 | 88 | |
| 20260505121516 | 52 | 41 | 12.0 | 22.0 | 0.00 | 0.02 | 0.01 | 87 | |
| 20260505121240 | 52 | 20 | 12.0 | 18.0 | 0.00 | 0.02 | 0.01 | 88 | |
| 20260505120500 | 52 | 26 | 12.0 | 18.0 | 0.00 | 0.02 | 0.01 | 87 | |
| 20260505120001 | 52 | 42 | 13.0 | 21.0 | 0.00 | 0.02 | 0.01 | 87 | |
| 20260505115730 | 52 | 26 | 13.0 | 23.0 | 0.00 | 0.02 | 0.01 | 87 | |
| 20260505114959 | 52 | 28 | 11.0 | 23.0 | 0.00 | 0.02 | 0.01 | 87 | |
| 20260505114501 | 52 | 32 | 10.0 | 15.0 | 0.00 | 0.02 | 0.01 | 88 | |
| 20260505113959 | 52 | 34 | 11.0 | 17.0 | 0.00 | 0.02 | 0.01 | 88 | |
| 20260505113500 | 52 | 36 | 11.0 | 17.0 | 0.00 | 0.02 | 0.01 | 87 | |
| 20260505113002 | 52 | 36 | 10.0 | 17.0 | 0.00 | 0.02 | 0.01 | 88 | |
| 20260505112501 | 52 | 49 | 9.0 | 15.0 | 0.00 | 0.02 | 0.01 | 88 | |
| 20260505111959 | 52 | 32 | 10.0 | 17.0 | 0.01 | 0.02 | 0.01 | 88 | |
| 20260505111712 | 52 | 42 | 12.0 | 17.0 | 0.01 | 0.02 | 0.01 | 88 | |
| 20260505111203 | 51 | 40 | 13.0 | 19.0 | 0.01 | 0.02 | 0.01 | 87 | |
| 20260505110433 | 52 | 26 | 13.0 | 22.0 | 0.01 | 0.02 | 0.01 | 87 | |
| 20260505101921 | 51 | 24 | 15.0 | 23.0 | 0.00 | 0.01 | 0.00 | 88 | |
| 20260505101638 | 51 | 355 | 17.0 | 24.0 | 0.00 | 0.01 | 0.00 | 89 | |
| 20260505100907 | 51 | 15 | 16.0 | 24.0 | 0.00 | 0.01 | 0.00 | 89 | |
| 20260505100409 | 51 | 19 | 14.0 | 23.0 | 0.00 | 0.01 | 0.00 | 89 | |
| 20260505095908 | 50 | 28 | 14.0 | 23.0 | 0.00 | 0.01 | 0.00 | 88 | |
| 20260505095408 | 50 | 33 | 15.0 | 25.0 | 0.00 | 0.01 | 0.00 | 89 | |
| 20260505094907 | 50 | 5 | 16.0 | 25.0 | 0.00 | 0.01 | 0.00 | 88 | |
| 20260505094409 | 50 | 19 | 15.0 | 23.0 | 0.00 | 0.01 | 0.00 | 89 | |
| 20260505093908 | 50 | 55 | 15.0 | 24.0 | 0.00 | 0.01 | 0.00 | 89 | |
| 20260505093408 | 50 | 18 | 16.0 | 24.0 | 0.00 | 0.01 | 0.00 | 89 | |
| 20260505092908 | 50 | 34 | 17.0 | 24.0 | 0.00 | 0.01 | 0.00 | 89 | |
| 20260505092409 | 50 | 23 | 17.0 | 24.0 | 0.00 | 0.01 | 0.00 | 89 | |
| 20260505091907 | 50 | 5 | 15.0 | 24.0 | 0.00 | 0.01 | 0.00 | 90 | |
| 20260505091628 | 50 | 30 | 15.0 | 25.0 | 0.00 | 0.01 | 0.00 | 89 | |
| 20260505090849 | 50 | 41 | 17.0 | 25.0 | 0.00 | 0.01 | 0.00 | 89 | |
| 20260505090348 | 50 | 27 | 16.0 | 24.0 | 0.00 | 0.01 | 0.00 | 90 |